Вернуться в каталог

MAGION 4

LostНаукаHEO
NORAD 23646·PAYLOAD·🇨🇿 Czechia

Запущен Aug 2, 1995 с Plesetsk Cosmodrome

Loading…

Ближайшие Пролёты (ближайшие 24 часа)

TLE

УстаревшееSource: Space-Track

Эпоха: Apr 9, 1997, 00:00 UTC

1 23646U 95039F   97099.00000000 -.00001302 +00000-0 +10000-3 0  9992
2 23646 070.3422 248.3458 7715642 328.5234 102.6257 00.26402863001616

Отслеживайте MAGION 4 в реальном времени с AllMySat

Download on the App Store